Weather observations for the past three days for
McComb, McComb / Pike County / John E Lewis Field Airport
Imperial (Metric)
Date Time (cdt) Wind (mph) Vis. (mi.) Weather Sky Cond. Temperature (ºF) Relative Humidity Wind Chill (°F) Heat Index (°F) Pressure Precipitation (in)
Air Dwpt 6 hour altimeter (in) sea level (mb) 1 hr 3 hr 6 hr
Max. Min.
20 03:53 Calm 10.00 Fair CLR 73.9 72 94% 30.09 1018.4
20 02:53 Vrbl 3 10.00 Fair CLR 73.9 72 94% 30.1 1018.5
20 01:53 NE 3 10.00 Fair CLR 73.9 73 97% 30.1 1018.7
20 00:53 Calm 10.00 Partly Cloudy SCT070 73.9 73 75.9 73.9 97% 30.11 1019.0
19 23:53 Vrbl 3 10.00 Overcast FEW027 OVC050 75 73 94% 73 30.12 1019.3
19 22:53 Vrbl 3 10.00 Mostly Cloudy FEW031 SCT048 BKN070 75 73 94% 73 30.12 1019.2
19 21:53 Calm 10.00 Fair CLR 75.9 73.9 94% 75 30.11 1018.9
19 20:53 Calm 10.00 Fair CLR 75.9 73.9 94% 75 30.08 1018.2
19 19:53 E 3 10.00 Mostly Cloudy BKN050 75.9 73.9 94% 75 30.08 1017.9
19 18:53 E 5 10.00 Overcast FEW029 FEW048 OVC060 75.9 73 87.1 75 91% 76 30.06 1017.5 0.37 0.37
19 17:53 SE 16 G 25 7.00 Light Rain SCT016 BKN055 OVC100 77 73.9 90% 78 30.05 1017.1
19 16:53 E 5 10.00 Light Rain FEW039 SCT050 BKN065 80.1 73.9 82% 85 30.04 1016.7
19 15:53 E 9 G 20 10.00 Fair CLR 86 72 63% 92 30.04 1016.5
19 14:53 E 8 10.00 Partly Cloudy FEW032 SCT055 SCT070 84.9 72 65% 91 30.05 1016.9
19 13:53 NE 8 10.00 Overcast FEW029 BKN038 OVC060 84 72 67% 90 30.06 1017.5
19 12:53 E 8 10.00 Mostly Cloudy FEW026 BKN036 84.9 72 84.9 73 65% 91 30.07 1017.7
19 11:53 E 10 G 22 10.00 Mostly Cloudy BKN025 84.9 72 65% 91 30.06 1017.2
19 10:53 E 9 10.00 Mostly Cloudy FEW024 BKN065 82 72 72% 87 30.06 1017.2
19 09:53 Vrbl 5 10.00 Overcast OVC055 77 71.1 82% 79 30.06 1017.3
19 08:53 Vrbl 5 10.00 Overcast FEW029 BKN039 OVC046 75 70 84% 75 30.05 1017.2
19 07:53 E 8 10.00 A Few Clouds FEW050 75 70 84% 75 30.03 1016.5
19 06:53 Vrbl 6 10.00 Fair CLR 73 69.1 73.9 73 87% 30 1015.5
19 05:53 E 7 10.00 Fair CLR 73 70 90% 29.98 1014.6
19 04:53 E 5 10.00 A Few Clouds FEW043 73 69.1 87% 29.97 1014.2
19 03:53 Vrbl 5 10.00 A Few Clouds FEW044 73 70 90% 29.96 1014.0
19 02:53 NE 5 10.00 Fair CLR 73 71.1 94% 29.96 1014.1
19 01:53 NE 3 10.00 Fair CLR 73.9 71.1 91% 29.97 1014.4
19 00:53 Calm 10.00 Fair CLR 73.9 72 75.9 73.9 94% 29.98 1014.6 0.03
18 23:53 Vrbl 3 10.00 Fair CLR 73.9 72 94% 29.99 1014.9
18 22:53 NE 5 10.00 Fair CLR 75 73 94% 73 29.99 1014.9
18 21:53 Calm 10.00 Fair CLR 73.9 73 97% 29.99 1014.9 0.03
18 20:53 Calm 10.00 Fair CLR 73.9 72 94% 29.99 1015.0 0.03
18 19:53 Vrbl 5 10.00 Light Rain FEW015 SCT032 BKN040 75.9 72 88% 76 29.99 1015.1
18 18:53 Calm 10.00 Overcast OVC080 75.9 72 79 75.9 88% 76 29.98 1014.7
18 17:53 N 3 10.00 Overcast OVC075 75.9 71.1 85% 76 29.97 1014.3
18 16:53 E 8 10.00 Overcast FEW016 BKN055 OVC110 78.1 72 82% 80 29.98 1014.7
18 15:53 E 6 10.00 Partly Cloudy FEW014 SCT120 78.1 73 85% 81 29.97 1014.5
18 14:53 Vrbl 5 10.00 Fair CLR 78.1 73 85% 81 29.98 1014.7
18 13:53 E 6 10.00 Fair CLR 77 73 88% 78 29.99 1015.1
18 12:53 E 5 10.00 Light Rain FEW060 BKN100 BKN110 75.9 73 77 73 91% 76 29.99 1015.1 0.01 0.03
18 11:53 E 6 9.00 Light Rain SCT050 BKN065 OVC110 75.9 73 91% 76 29.99 1015.0 0.02
18 10:53 E 9 10.00 Partly Cloudy FEW017 FEW080 SCT120 77 72 85% 78 29.99 1015.0
18 09:53 E 8 10.00 Fair CLR 75.9 72 88% 76 29.97 1014.5
18 08:53 E 7 10.00 A Few Clouds FEW110 75 71.1 88% 75 29.96 1014.1
18 07:53 E 6 10.00 Fair CLR 73.9 72 94% 29.95 1013.7
18 06:53 Vrbl 5 10.00 A Few Clouds FEW037 73 72 73 73 96% 29.96 1013.9 0.01
18 05:53 NE 5 10.00 A Few Clouds FEW120 73 72 96% 29.94 1013.5
18 04:53 E 5 10.00 Light Rain FEW004 SCT110 73 72 96% 29.95 1013.6 0.01
18 03:53 Vrbl 3 10.00 Mostly Cloudy BKN120 73 72 96% 29.94 1013.3
18 02:53 E 3 10.00 Partly Cloudy SCT120 73 72 96% 29.95 1013.5
18 01:53 E 3 10.00 Fair CLR 73 72 96% 29.96 1013.9
18 00:53 E 3 10.00 Fair CLR 73 72 75.9 73 96% 29.97 1014.5
17 23:53 Calm 10.00 A Few Clouds FEW120 73 72 96% 30 1015.2
17 22:53 Vrbl 3 10.00 A Few Clouds FEW120 73.9 72 94% 30 1015.4
17 21:53 E 5 10.00 Fair CLR 75 73 94% 73 30 1015.2
17 20:53 Vrbl 3 10.00 Fair CLR 75.9 73 91% 76 29.98 1014.7
17 19:53 E 5 10.00 Fair CLR 75 73 94% 73 29.99 1014.9
17 18:53 E 5 10.00 A Few Clouds FEW100 75.9 72 77 73.9 88% 76 29.98 1014.6 0.08
17 17:53 SE 5 10.00 Mostly Cloudy FEW070 BKN110 75.9 72 88% 76 29.99 1014.9
17 16:53 SE 6 10.00 Partly Cloudy SCT110 75.9 72 88% 76 29.98 1014.7
17 15:53 SE 9 10.00 Light Rain FEW042 BKN100 BKN120 73.9 72 94% 30 1015.2 0.01 0.08
17 14:53 SE 13 G 21 10.00 Light Rain FEW015 SCT033 BKN075 75.9 72 88% 76 30.01 1015.9
17 13:53 S 8 10.00 Overcast SCT016 BKN043 OVC110 75.9 75 97% 75 30.03 1016.2 0.07
17 12:53 E 7 10.00 Thunderstorm in Vicinity SCT017 BKN028 OVC095 73.9 72 84.9 73.9 94% 30.01 1015.6 0.71 0.71
17 11:53 SE 6 10.00 Mostly Cloudy SCT024 BKN033 84.9 75 72% 93 30 1015.2
17 10:53 Vrbl 7 10.00 Mostly Cloudy SCT017 BKN023 82.9 75 77% 90 30 1015.3
17 09:53 E 7 10.00 Mostly Cloudy BKN014 BKN028 81 75 82% 87 30.01 1015.6
17 08:53 E 6 10.00 Partly Cloudy SCT007 77 73.9 90% 78 30.01 1015.6
17 07:53 E 6 10.00 Overcast OVC005 75 73 94% 73 29.99 1015.1
17 06:53 Vrbl 3 10.00 Overcast OVC004 73.9 73 75 73.9 97% 29.99 1014.9
17 05:53 Vrbl 5 10.00 Overcast OVC004 73.9 73 97% 29.97 1014.5
17 04:53 E 3 10.00 Partly Cloudy SCT007 73.9 73 97% 29.98 1014.7
Date Time (cdt) Wind (mph) Vis. (mi.) Weather Sky Cond. Air Dwpt Max. Min. Relative Humidity Wind Chill (°F) Heat Index (°F) altimeter (in) sea level (mb) 1 hr 3 hr 6 hr
6 hour
Temperature (ºF) Pressure Precipitation (in)